Regional Weather Roundup
Issued by NWS

Home | Current Version | Previous Version | Graphics & Text | Print | Product List | Glossary On
Versions: 1 2 3 4 5 6 7 8 9 10 11 12 13 14 15 16 17 18 19 20 21 22 23 24 25 26 27 28 29 30 31 32 33 34 35 36 37 38 39 40 41 42 43 44 45 46 47 48 49 50
000
ASUS43 KIND 270059
RWRIN

WEATHER ROUNDUP FOR INDIANA
NATIONAL WEATHER SERVICE INDIANAPOLIS IN
800 PM EST FRI DEC 26 2014

NOTE: "FAIR" INDICATES FEW OR NO CLOUDS BELOW 12,000 FEET WITH NO
SIGNIFICANT WEATHER AND/OR OBSTRUCTIONS TO VISIBILITY.

* - STATION DOES NOT REPORT WEATHER SUCH AS PRECIPITATION OR FOG.

+ - STATION NOT QUALITY CONTROLLED BY THE NATIONAL WEATHER SERVICE.
    USE DATA WITH CAUTION...ESPECIALLY DEWPOINT AND RELATIVE
    HUMIDITY OBSERVATIONS.

INZ001>003-010>013-019-020-270200-
NORTHWEST INDIANA

CITY           SKY/WX    TMP DP  RH WIND       PRES   REMARKS
GARY /AIRPORT/ CLOUDY    50  39  66 S8        30.04S
KNOX *+        CLOUDY    47  37  70 S10       30.06S
VALPARAISO     NOT AVBL

$$

LMZ046-743>745-270200-
SOUTHERN LAKE MICHIGAN

STATION/POSITION TIME  TEMP WIND        PRES
                       AIR  DIR/SP/G
                 (UTC) (F)  (DEG/KT/KT) (MB)
MICHIGAN CITY    0000   49  180/ 12/ 15   N/A

$$

INZ004-005-014>016-021>024-270200-
NORTH CENTRAL INDIANA

CITY           SKY/WX    TMP DP  RH WIND       PRES   REMARKS
ELKHART        CLOUDY    46  39  76 S8        30.07S
GOSHEN         MOCLDY    45  39  79 S8        30.07S
SOUTH BEND     CLOUDY    49  41  74 S10G21    30.07S
WARSAW +       PTCLDY    43  39  87 S3        30.08F

$$

INZ006>009-017-018-025>027-270200-
NORTHEAST INDIANA

CITY           SKY/WX    TMP DP  RH WIND       PRES   REMARKS
ANGOLA *+      MOCLDY    39  37  93 S3        30.08F
FORT WAYNE     CLOUDY    42  39  89 S8        30.11S

$$

INZ028-029-035-036-043>045-051>053-270200-
WEST CENTRAL INDIANA

CITY           SKY/WX    TMP DP  RH WIND       PRES   REMARKS
GREENCASTLE +  MOCLDY    46  37  71 S6        30.11S
LAFAYETTE      CLOUDY    45  40  82 S6        30.08S
TERRE HAUTE    CLOUDY    49  42  77 S9        30.10S

$$

INZ030>032-037>040-046>048-054>057-064-065-270200-
CENTRAL INDIANA

CITY           SKY/WX    TMP DP  RH WIND       PRES   REMARKS
CP ATTERBURY + MOCLDY    45  37  76 MISG      30.13F
COLUMBUS       PTCLDY    41  36  81 S8        30.14S
INDIANAPOLIS   MOCLDY    45  39  79 S7        30.11S
-EAGLE CREEK   MOCLDY    46  40  79 S3        30.11S
KOKOMO *+      PTCLDY    39  36  87 S7        30.10S
MT COMFORT *+  MOCLDY    43  36  75 S7        30.12S
SHELBYVILLE    MOCLDY    44  38  79 S8        30.12F

$$

INZ033-034-041-042-049-050-058-059-270200-
EAST CENTRAL INDIANA

CITY           SKY/WX    TMP DP  RH WIND       PRES   REMARKS
MUNCIE         MOCLDY    46  38  73 S10       30.11F

$$

INZ060-061-067>069-081>083-085>088-270200-
SOUTHWEST INDIANA

CITY           SKY/WX    TMP DP  RH WIND       PRES   REMARKS
EVANSVILLE     PTCLDY    51  40  65 SE3       30.14S
HUNTINGBURG *+ CLEAR     48  37  66 S6        30.15S

$$

INZ062-063-066-070>080-084-089>092-270200-
SOUTH CENTRAL AND SOUTHEAST INDIANA

CITY           SKY/WX    TMP DP  RH WIND       PRES   REMARKS
BLOOMINGTON    PTCLDY    47  39  74 S7        30.12S

$$




USA.gov is the U.S. government's official web portal to all federal, state and local government web resources and services.